SCP
1 1 1 1 2 2 2 2 2 1 1 0 0 0 0 0 0 0 0 0 0 0 0 0 0 0 0 0 0 0 0 0 0 0 0 0 0 0 0 0 0 0 0
0 0 1 1 2 2 2 2 2 1 1 0 0 0 0 0 0 0 0 0 0 0 0 0 0 0 0 0 0 0 0 0 0 0 0 0 0 0 0 0 0 0 0
0 0 0 1 1 1 1 1 1 1 1 0 0 0 0 0 0 0 0 0 0 0 0 0 0 0 0 0 0 0 0 0 0 0 0 0 0 0 0 0 0 0 0
0 0 0 0 0 1 1 1 1 0 0 0 0 0 0 0 0 0 0 0 0 0 0 0 0 0 0 0 0 0 0 0 0 0 0 0 0 0 0 0 0 0 0
0 0 0 0 0 0 0 0 0 0 0 0 0 0 0 0 0 0 0 1 1 1 0 0 0 0 0 0 0 0 0 0 0 0 0 0 0 0 0 0 0 0 0
0 0 0 0 0 0 0 0 0 0 0 0 0 0 0 0 0 0 0 1 1 1 1 0 0 0 0 0 0 0 0 0 0 0 0 0 0 0 0 0 0 0 0
0 0 0 0 0 0 0 0 0 0 0 0 0 0 0 0 0 0 0 1 1 1 1 1 0 0 0 0 0 0 0 0 0 0 0 0 0 0 0 0 0 0 0
0 0 0 0 0 0 0 0 0 0 0 0 0 0 0 0 0 0 0 0 1 1 1 1 0 0 0 0 0 0 0 0 0 0 0 0 0 0 0 0 0 0 0
0 0 0 0 0 0 0 0 0 0 0 0 0 0 0 0 0 0 0 0 0 0 1 0 0 0 0 0 0 0 0 0 0 0 0 0 0 0 0 0 0 0 0
0 0 0 0 0 0 0 0 0 0 0 0 0 0 0 0 0 0 0 0 0 0 0 0 0 0 0 0 0 0 0 0 0 0 0 0 0 0 0 0 0 0 0
0 0 0 0 0 0 0 0 0 0 0 0 0 0 0 0 0 0 0 0 0 0 0 0 0 0 0 0 0 0 0 0 0 0 0 0 0 0 0 0 0 0 0
0 0 0 0 0 0 0 0 0 0 0 0 0 0 0 0 0 0 0 0 0 0 0 0 0 0 0 0 0 0 0 0 0 0 0 0 0 0 0 0 0 0 0
0 0 0 0 0 0 0 0 0 0 0 0 0 0 0 0 0 0 0 0 0 0 0 0 0 0 0 0 0 0 0 0 0 0 0 0 0 0 0 0 0 0 0
0 0 0 0 0 0 0 0 0 0 0 0 0 0 0 0 0 0 0 0 0 0 0 0 0 0 0 0 0 0 0 0 0 0 0 0 0 0 0 0 0 0 0
0 0 0 0 0 0 0 0 0 0 0 0 0 0 0 0 0 0 0 0 0 0 0 0 0 0 0 0 0 0 0 0 0 0 0 0 0 0 0 0 0 0 0
0 0 0 0 0 0 0 0 0 0 0 0 0 0 0 0 0 0 0 0 0 0 0 0 0 0 0 0 0 0 0 0 0 0 0 0 0 0 0 0 0 0 0
0 0 0 0 0 0 0 0 0 0 0 0 0 0 0 0 0 0 0 0 0 0 0 0 0 0 0 0 0 0 0 0 0 0 0 0 0 0 0 0 0 0 0
0 0 0 0 0 0 0 0 0 0 0 0 0 0 0 0 0 0 0 0 0 0 0 0 0 0 0 0 0 0 0 0 0 0 0 0 0 0 0 0 0 0 0
0 0 0 0 0 0 0 0 0 0 0 0 0 0 0 0 0 0 0 0 0 0 0 0 0 0 0 0 0 0 0 0 0 0 0 0 0 0 0 0 0 0 0
0 0 0 0 0 0 0 0 0 0 0 0 0 0 0 0 0 0 0 0 0 0 0 0 0 0 0 0 0 0 0 0 0 0 0 0 0 0 0 0 0 0 0
0 0 0 0 0 0 0 0 0 0 0 0 0 0 0 0 0 0 0 0 0 0 0 0 0 0 0 0 0 0 0 0 0 0 0 0 0 0 0 0 0 0 0
0 0 0 0 0 0 0 0 0 0 0 0 0 0 0 0 0 0 0 0 0 0 0 0 0 0 0 0 0 0 0 0 0 0 0 0 0 0 0 0 0 0 0
0 0 0 0 0 0 0 0 0 0 0 0 0 0 0 0 0 0 0 0 0 0 0 0 0 0 0 0 0 0 0 0 0 0 0 0 0 0 0 0 0 0 0
0 0 0 0 0 0 0 0 0 0 0 0 0 0 0 0 0 0 0 0 0 0 0 0 0 0 0 0 0 0 0 0 0 0 0 0 0 0 0 0 0 0 0
0 0 0 0 0 0 0 0 0 0 0 0 0 0 0 0 0 0 0 0 0 0 0 0 0 0 0 0 0 0 0 0 0 0 0 0 0 0 0 0 0 0 0
0 0 0 0 0 0 0 0 0 0 0 0 0 0 0 0 0 0 0 0 0 0 0 0 0 0 0 0 0 0 0 0 0 0 0 0 0 0 0 0 0 0 0
Wind_Speed
9 8 9 9 10 10 10 10 9 9 10 11 11 11 11 11 11 10 9 9 10 8 7 8 8 6 5 4 4 4 3 3 4 2 2 3 4 3 2 1 0 0 1
6 7 7 8 8 9 10 9 9 9 9 10 10 10 10 10 11 11 11 10 11 11 10 9 9 7 7 5 5 5 4 4 4 4 2 2 3 4 2 1 0 1 1
5 5 6 6 8 9 9 8 8 8 8 8 9 10 10 9 10 10 10 10 10 10 11 11 10 10 8 6 6 5 4 3 3 5 3 2 1 2 2 0 1 1 2
5 6 6 7 7 7 6 7 7 7 7 7 8 8 8 8 9 8 9 9 8 8 8 9 10 11 11 10 7 7 6 5 5 5 3 2 1 2 2 1 1 1 2
7 7 7 5 4 4 5 5 5 6 6 6 6 6 7 7 8 9 9 9 9 8 7 7 7 8 10 9 8 9 8 6 5 4 4 3 2 2 2 2 1 1 2
7 7 6 5 5 5 4 4 5 5 5 5 6 7 6 5 10 13 11 9 9 10 9 7 7 8 9 11 11 12 11 9 8 6 4 5 4 3 2 2 1 0 2
7 6 6 6 6 5 5 5 5 5 5 5 5 6 6 7 12 14 13 9 9 9 10 9 7 6 9 8 10 10 8 8 9 6 6 5 5 5 4 2 2 2 2
6 6 6 6 6 5 5 6 5 4 5 5 5 5 5 7 12 13 13 8 7 8 9 10 10 10 9 11 9 7 5 5 5 3 4 4 4 5 5 4 3 1 2
7 7 7 7 7 7 7 6 5 5 5 4 5 6 6 7 12 14 14 7 7 7 6 7 9 10 14 16 11 9 7 4 5 6 6 6 7 7 6 4 3 1 2
9 7 7 7 8 8 7 6 4 4 4 5 4 4 5 6 11 14 14 7 7 7 6 6 8 10 16 17 11 11 10 7 6 6 5 5 4 5 6 4 4 3 2
6 6 6 6 7 6 5 5 5 5 5 5 4 3 4 5 10 14 14 6 8 8 7 7 7 15 17 16 12 8 10 9 7 6 4 3 3 3 3 3 3 3 3
6 6 6 6 5 5 6 5 6 6 6 5 5 4 3 4 6 10 13 10 9 7 7 6 8 16 16 15 10 10 13 10 6 5 4 4 4 4 3 3 3 2 2
6 6 5 5 5 5 6 7 6 6 5 5 5 5 4 3 5 10 11 11 11 5 4 9 12 15 14 10 11 12 9 6 6 5 5 5 4 3 3 2 2 1 2
7 6 5 6 5 5 4 5 6 6 6 6 6 6 5 5 5 5 6 6 8 7 6 8 12 13 9 7 7 8 5 5 5 5 4 3 3 3 3 3 2 2 2
6 5 5 5 5 5 4 4 4 4 5 6 6 6 7 7 8 11 9 7 7 7 8 6 6 7 6 5 5 5 4 5 5 4 4 4 4 4 4 3 3 3 3
6 5 4 4 4 4 4 3 3 3 4 5 5 6 4 6 11 14 14 13 14 15 9 7 8 8 8 8 8 6 6 6 5 5 5 5 5 5 4 4 3 4 5
5 5 4 4 4 4 4 4 3 2 3 4 5 7 7 8 12 14 15 15 16 17 7 7 8 8 8 7 7 7 7 6 5 6 6 6 5 5 5 5 5 4 5
4 4 4 4 4 4 4 4 4 4 3 1 2 6 7 9 12 14 15 12 10 11 6 7 7 7 7 7 7 7 6 6 6 6 6 6 6 5 5 5 5 6 5
4 3 3 3 3 3 3 3 3 4 3 3 2 3 5 7 10 13 14 7 7 8 7 6 6 6 6 6 6 6 7 7 7 6 6 7 6 6 6 6 6 6 5
3 4 4 3 3 3 3 3 3 3 3 3 4 3 3 4 5 7 8 6 6 6 6 6 5 6 6 6 6 6 6 6 7 7 7 7 7 7 7 7 7 6 6
3 3 4 3 3 2 2 2 2 3 3 3 3 4 7 5 5 6 6 6 6 6 6 6 5 5 5 5 6 7 8 7 7 7 7 7 7 7 6 6 6 6 5
3 3 3 2 2 2 2 2 1 2 2 3 2 3 7 4 4 4 5 5 4 4 4 5 5 5 6 6 7 7 8 8 8 7 7 7 7 7 6 6 6 6 6
3 3 3 2 2 2 2 1 1 1 2 2 2 2 3 3 4 4 4 3 3 3 3 4 5 5 5 5 6 7 8 8 7 8 8 7 7 7 7 7 8 7 7
3 3 3 2 2 1 1 1 1 2 2 2 2 3 3 3 4 4 4 3 3 3 3 4 5 6 7 6 5 5 5 6 6 7 10 9 8 7 7 7 8 8 8
2 2 2 1 1 1 1 1 1 2 2 2 3 3 3 3 3 3 3 3 4 4 5 4 4 5 8 9 7 7 8 10 8 7 8 8 9 9 8 9 8 7 7
2 2 1 1 1 1 1 1 2 2 2 2 2 3 3 3 3 3 3 3 3 4 4 4 5 6 7 7 8 9 10 11 11 11 8 8 9 8 9 7 9 8 8
Wind_Direction
212 211 208 207 207 206 209 209 204 199 193 193 194 194 195 195 192 191 190 184 187 185 180 180 181 171 171 170 162 156 152 142 152 124 99 126 130 137 131 106 120 127 324
210 210 210 207 203 205 209 208 202 200 196 192 188 188 191 192 189 188 186 185 186 185 181 176 177 169 170 167 166 161 155 143 142 147 131 140 148 153 142 141 26 339 307
202 207 212 210 206 208 208 203 199 195 192 187 185 188 188 187 186 185 184 185 187 185 180 179 177 170 172 168 163 159 150 133 125 138 148 147 141 142 120 94 307 309 307
194 202 210 212 210 206 199 193 192 188 186 186 186 185 182 180 180 176 174 175 176 176 178 176 175 176 175 169 164 160 147 136 127 130 138 145 150 132 124 163 280 296 300
191 201 207 203 199 192 190 188 185 184 184 178 175 174 173 175 176 172 171 171 169 165 162 165 169 170 171 168 164 161 155 150 145 147 151 151 162 157 179 173 215 297 290
192 200 193 183 182 181 180 175 173 175 173 169 174 171 173 177 173 172 170 169 167 165 164 158 154 156 157 158 158 159 161 162 166 164 169 178 183 171 155 157 152 27 287
191 191 185 178 177 176 168 166 172 170 164 169 171 168 173 174 171 170 170 166 167 168 166 161 157 159 152 151 148 146 153 160 164 166 172 180 170 169 158 163 181 202 239
187 188 182 176 173 167 167 174 172 163 166 166 169 170 168 173 170 168 163 160 161 164 167 166 163 162 161 153 145 143 140 143 150 151 156 154 149 149 158 163 172 202 276
190 192 186 176 172 172 178 178 170 165 165 162 161 165 168 171 170 167 159 153 153 157 159 161 163 163 165 157 150 150 144 139 132 130 133 139 147 152 149 131 136 145 254
197 191 179 174 176 181 179 168 158 156 157 150 153 161 166 169 172 170 162 154 154 154 152 157 163 167 167 163 159 159 164 165 150 139 137 142 147 162 170 166 165 173 204
173 164 165 170 174 170 161 153 148 144 143 146 148 148 159 166 174 174 171 164 165 163 167 169 173 174 172 172 168 169 172 156 152 149 147 150 154 164 173 172 175 183 198
152 158 163 163 160 156 152 151 150 151 154 156 154 156 157 162 174 180 180 176 167 166 173 170 173 175 175 173 169 168 159 149 146 152 164 180 187 190 189 187 192 202 216
147 157 157 155 156 157 160 162 160 163 168 170 170 175 170 163 178 181 179 175 169 156 157 164 167 171 169 169 171 165 154 154 159 172 189 196 190 181 167 171 186 207 246
152 157 156 158 159 158 162 168 172 177 179 178 180 180 172 172 177 172 168 164 157 143 140 149 159 165 161 153 161 164 165 173 176 186 189 177 159 165 180 180 192 191 234
150 153 156 161 162 165 169 178 180 186 186 182 185 179 179 190 191 181 171 170 164 157 142 136 148 158 163 165 168 170 175 176 184 184 179 180 184 188 194 186 189 189 211
150 156 159 160 159 160 159 151 174 166 176 187 184 180 190 191 178 183 184 178 170 162 152 165 174 179 182 182 183 185 190 193 192 188 189 191 194 197 198 194 199 206 224
151 154 152 154 157 162 162 165 159 133 153 176 184 189 186 179 180 183 182 180 178 173 175 182 187 189 189 187 189 190 194 194 188 191 197 198 196 197 197 201 206 216 227
138 140 144 152 158 164 167 166 164 164 165 169 189 190 186 184 183 183 180 172 183 189 196 194 194 192 190 190 191 193 192 187 190 196 198 198 196 197 201 208 210 215 223
130 133 136 139 147 155 157 158 160 166 167 159 148 177 183 183 184 188 182 187 193 200 203 204 200 195 193 193 194 193 193 194 195 196 199 199 198 200 208 212 213 216 216
115 118 124 132 137 143 150 159 165 171 174 176 180 176 166 167 183 191 196 200 203 206 205 206 203 198 194 191 191 191 194 197 197 201 203 201 199 202 209 209 209 210 215
109 113 114 120 129 137 149 161 167 174 186 188 191 193 189 190 197 201 204 208 210 210 207 206 203 199 197 193 194 196 199 203 203 204 205 202 198 202 206 207 209 210 210
103 112 115 124 125 128 136 141 152 175 192 193 183 207 211 205 208 212 215 217 215 214 208 202 205 203 200 198 197 199 204 208 206 204 204 203 202 202 200 201 204 205 203
92 103 104 105 115 126 130 138 159 181 198 201 194 203 212 215 217 221 224 221 214 212 209 205 208 210 207 205 204 203 208 211 206 198 197 198 200 201 199 201 202 201 203
80 96 105 107 109 125 146 163 176 193 205 211 212 215 222 228 231 232 232 227 222 220 215 212 215 217 212 210 212 214 218 215 203 201 198 199 200 201 201 202 202 203 202
67 80 94 107 127 147 170 194 206 212 219 226 228 231 234 236 238 239 236 231 227 227 226 221 220 220 218 217 215 216 222 223 216 204 198 200 202 202 201 202 201 197 197
66 73 83 102 147 182 200 218 227 230 233 237 238 239 240 242 244 243 238 234 231 230 227 223 222 222 223 222 224 224 224 224 219 211 201 200 202 204 199 201 199 196 193